This is the latest recevied weather packets stored in our database for station/object SQ5RTW-1. If no packets are shown the sender has not sent any weather packets the latest 10 day(s).
| Time | Temp. | Humidity | Pressure | Rain* | Wind** | Luminosity | Snow |
|---|---|---|---|---|---|---|---|
| 1777555245 | 23.33° C | 20% | 1031.1 hPa | - | - | - | - |
| 1777555220 | 20.56° C | 20% | 1031 hPa | - | - | - | - |
| 1777554319 | 18.33° C | 20% | 1031 hPa | - | - | - | - |
| 1777553418 | 17.22° C | 22% | 1031.1 hPa | - | - | - | - |
| 1777552517 | 17.22° C | 19% | 1031.4 hPa | - | - | - | - |
| 1777551616 | 23.33° C | 17% | 1031.7 hPa | - | - | - | - |
| 1777551599 | 23.89° C | 17% | 1031.7 hPa | - | - | - | - |
| 1777551574 | 21.67° C | 17% | 1031.7 hPa | - | - | - | - |
| 1777550673 | 19.44° C | 18% | 1031.7 hPa | - | - | - | - |
| 1777549773 | 20° C | 17% | 1031.9 hPa | - | - | - | - |
| 1777548872 | 17.22° C | 21% | 1032 hPa | - | - | - | - |
| 1777547971 | 18.33° C | 23% | 1032 hPa | - | - | - | - |
| 1777547954 | 18.89° C | 22% | 1032 hPa | - | - | - | - |
| 1777547930 | 16.11° C | 22% | 1031.9 hPa | - | - | - | - |
| 1777547029 | 15.56° C | 23% | 1032.3 hPa | - | - | - | - |
| 1777546128 | 17.22° C | 23% | 1032.5 hPa | - | - | - | - |
| 1777545227 | 17.78° C | 23% | 1032.4 hPa | - | - | - | - |
| 1777545211 | 18.33° C | 24% | 1032.5 hPa | - | - | - | - |
| 1777545186 | 16.11° C | 24% | 1032.5 hPa | - | - | - | - |
| 1777544285 | 16.67° C | 23% | 1032.7 hPa | - | - | - | - |
| 1777543384 | 14.44° C | 29% | 1032.8 hPa | - | - | - | - |
| 1777542483 | 12.22° C | 33% | 1032.8 hPa | - | - | - | - |
| 1777541582 | 11.67° C | 34% | 1033.1 hPa | - | - | - | - |
| 1777540681 | 13.33° C | 34% | 1033.3 hPa | - | - | - | - |
| 1777540665 | 14.44° C | 34% | 1033.3 hPa | - | - | - | - |
* Rain since midnight (hover to see other rain measurements)
** Current wind speed in m/s (hover to see current wind gust speed)